HULIANWANG DIGUI-32 (64285 NORAD) Tracking and Keplerian Element Data

This shows tracking and keplerian element data for the satellite.

Feedback or suggestion? Click here.




ElementValue
Catalog64285
NameHULIANWANG DIGUI-32
Epoch Orbit2646
Epoch Day354.17980945
Epoch Year2025
RAAN73.9014
Inclination86.4928
Eccentricity0.000153
Argument of Perigee112.0904
Mean Anonmoly248.0393
Mean Motion13.24419166
Decay Rate8.2E-07
L11 64285U 25121C 25354.17980945 .00000082 00000+0 15606-3 0 9998
L22 64285 86.4928 73.9014 0001530 112.0904 248.0393 13.24419166 26468



Live tracking and technical data element details for HULIANWANG DIGUI-32 (NORAD 64285). HULIANWANG DIGUI-32 can be tracked NOW for your location showing map with azimuth and elevation plus other details from your city location.







IsCatalogInMostPopularTable: catalog: 64285, numindb: 7
Update: records affected: 1



GetName: 64285 HULIANWANG DIGUI-32

Hit Count: updated at: Mon, 20 Apr 2026 10:13:09 GMT